Wind_Speed
11 10 13 13 10 7 5 4 4 6 8 10 11 10 10 10 12 12 12 11 12 13 14 14 13 13 12 11 11 10 10 9 10 10 8 7 7 6 5 5 4 3 4
11 9 12 13 11 9 9 8 8 8 8 8 10 11 10 11 13 14 14 14 13 15 15 15 15 15 15 14 13 12 13 13 14 13 12 11 11 10 9 8 8 7 6
5 9 10 10 10 9 10 10 10 11 10 9 10 11 12 13 15 15 16 16 15 16 15 16 16 16 15 16 16 15 15 15 15 15 15 16 15 14 13 11 11 10 10
9 8 7 8 7 9 10 10 11 12 13 12 12 12 13 14 16 17 18 19 19 19 18 18 18 18 18 18 18 18 17 17 16 17 17 18 17 17 16 15 15 15 14
14 9 9 6 5 7 8 9 11 13 15 16 15 16 16 17 17 18 19 21 21 21 22 22 22 22 22 22 22 22 21 19 18 18 19 19 20 20 19 19 18 18 19
9 6 8 6 7 9 10 8 10 13 16 17 19 19 19 20 21 22 22 23 23 23 24 25 25 25 26 27 25 24 23 22 21 21 22 22 22 22 23 23 22 21 21
4 6 12 14 14 15 15 15 15 15 15 17 19 22 23 25 25 26 26 27 27 28 29 30 29 29 29 29 28 27 26 24 23 23 25 27 26 25 25 25 25 25 25
7 6 11 16 19 21 23 22 22 22 22 23 24 25 26 26 28 30 31 32 33 34 34 34 33 32 32 32 31 30 28 27 24 24 26 29 29 28 28 29 27 28 29
11 9 17 18 21 21 23 26 25 25 27 29 30 31 32 32 33 34 36 37 38 38 38 37 36 35 35 35 34 33 32 31 30 29 30 30 31 32 32 32 31 33 34
13 19 17 19 22 24 28 27 27 26 29 31 31 32 31 32 33 34 36 38 41 41 41 42 42 42 42 41 39 37 38 37 36 35 35 34 35 36 38 37 38 37 39
17 16 19 18 19 24 24 25 31 28 31 35 34 36 38 39 39 40 41 41 44 43 42 44 49 49 48 48 44 41 40 42 41 40 39 40 38 37 41 42 42 41 40
17 21 19 20 23 23 24 24 26 34 33 39 33 38 45 48 46 44 45 50 49 51 49 51 56 58 56 53 49 45 42 44 44 42 41 40 40 40 42 44 47 47 45
21 25 28 27 26 28 33 30 29 31 36 35 35 42 43 45 45 40 32 43 51 51 60 65 57 60 71 61 52 50 46 45 46 44 43 44 44 40 42 46 53 52 50
25 28 31 28 28 27 29 32 33 37 35 35 39 37 38 39 43 47 45 51 49 55 62 59 46 47 55 59 50 53 48 45 47 44 43 44 43 44 43 40 43 46 46
27 30 32 30 23 21 24 22 24 27 30 30 32 36 40 38 44 45 48 43 41 43 46 28 26 45 48 48 51 49 52 54 54 55 49 44 40 40 43 41 44 49 46
29 29 32 31 29 26 26 24 26 29 30 31 35 35 40 41 43 40 41 40 44 31 28 35 34 31 37 45 45 53 57 57 45 52 49 48 43 43 44 45 47 50 51
28 30 32 33 29 31 30 28 28 29 33 33 35 35 33 37 31 31 36 37 35 30 28 19 18 17 20 27 33 23 35 28 32 34 35 32 36 39 41 40 44 47 49
26 28 30 31 31 35 33 33 34 34 32 30 32 31 31 29 31 30 31 32 30 33 35 35 28 33 28 29 26 25 31 27 30 32 32 35 37 40 43 45 48 50 51
28 27 28 28 35 40 35 35 36 35 34 35 35 37 36 34 33 32 28 27 29 31 36 39 41 48 51 39 32 27 31 33 35 37 39 43 46 47 49 52 54 54 55
29 30 33 38 39 37 36 34 35 34 36 39 40 39 40 39 37 35 31 30 32 34 38 35 33 36 34 34 36 35 38 40 40 44 47 47 48 52 53 56 59 58 57
30 33 36 34 36 36 37 39 37 37 38 40 41 44 43 43 40 37 39 40 37 37 39 40 41 39 39 38 41 42 41 45 49 51 55 54 55 58 59 62 62 64 63
35 35 39 36 39 37 35 37 40 42 43 44 44 43 40 39 38 37 37 37 38 38 39 39 40 41 44 46 48 48 48 50 53 55 57 59 60 62 63 65 69 68 63
39 41 41 40 45 41 39 38 39 40 41 43 41 41 41 40 40 39 39 38 37 36 37 39 40 42 44 47 51 52 54 55 55 57 58 61 63 65 66 68 70 72 69
41 42 46 45 42 39 38 38 39 39 39 38 38 37 38 38 38 40 40 39 39 40 40 41 42 43 44 43 45 48 49 50 52 54 56 60 59 61 63 64 65 68 70
39 47 43 43 38 38 38 38 38 39 39 38 37 37 38 38 38 38 39 40 41 41 42 40 37 35 36 39 40 42 45 47 50 55 60 60 61 61 60 59 62 63 63
44 48 47 44 41 40 40 39 39 39 39 38 38 38 37 38 39 39 39 40 39 36 34 35 36 35 34 35 35 36 37 38 42 43 44 47 49 53 54 54 53 53 54
Wind_Direction
222 231 232 234 234 242 247 264 280 292 297 299 296 292 289 289 281 274 269 270 279 287 290 292 289 284 278 271 265 259 256 248 245 246 244 241 241 240 248 270 286 292 296
213 254 245 232 229 240 244 247 257 266 281 291 293 289 283 282 280 278 272 272 280 286 287 288 287 283 277 270 263 255 248 246 248 251 251 245 245 251 249 250 263 273 276
212 236 235 234 234 241 253 260 262 262 260 267 276 279 277 276 275 272 272 275 277 280 280 282 281 277 273 270 266 260 254 252 252 254 252 252 253 251 253 255 259 263 270
230 227 222 231 237 249 249 250 259 262 259 253 254 257 260 262 268 272 274 276 279 280 278 275 272 269 269 267 265 264 262 261 258 258 258 259 259 257 256 255 256 260 263
232 219 218 216 248 262 269 272 270 267 265 260 255 251 253 254 256 261 265 270 274 275 275 274 272 270 268 266 266 267 267 266 265 264 262 262 263 263 262 260 257 259 263
225 247 258 251 257 270 268 265 260 261 264 268 268 267 264 264 262 262 263 265 266 267 270 272 271 270 270 269 266 265 265 265 266 265 266 263 262 263 263 262 261 259 262
294 329 314 317 307 294 281 275 274 274 274 272 267 266 264 264 263 262 261 262 264 268 271 272 270 268 268 269 268 265 264 265 266 269 271 269 267 264 265 263 264 264 262
270 310 313 313 307 305 302 297 289 284 279 276 274 272 272 270 268 265 266 267 269 270 271 271 270 268 267 267 267 268 268 265 264 263 263 268 270 270 268 265 265 265 265
232 291 318 300 290 285 285 285 281 280 284 285 286 281 278 276 275 276 277 278 278 278 275 271 268 265 264 263 263 263 263 263 261 259 260 261 264 265 262 262 260 260 260
303 295 298 287 272 279 275 277 281 281 278 271 272 271 268 268 271 274 278 281 283 282 278 275 271 267 263 261 260 262 265 266 265 263 263 262 263 264 263 260 258 257 260
285 277 293 282 318 260 288 290 280 274 277 275 269 267 270 275 273 270 268 268 269 269 270 275 273 267 263 260 257 256 259 261 262 261 260 261 259 263 267 266 264 263 260
296 316 315 305 309 314 306 303 291 275 290 288 290 293 278 270 273 272 276 274 272 272 273 273 272 261 259 259 260 259 259 260 262 262 261 262 263 260 262 267 269 267 263
312 313 311 306 303 302 299 300 293 288 290 295 296 288 275 281 282 267 264 283 284 283 284 281 279 274 257 250 252 257 257 257 259 261 263 261 261 261 262 266 264 263 263
321 318 313 310 307 301 290 286 286 290 293 292 293 285 278 279 279 270 271 281 280 286 289 290 281 259 259 247 247 254 255 256 253 256 259 261 261 260 262 264 259 257 262
322 319 321 322 312 294 287 280 280 283 283 284 284 284 288 288 279 273 274 283 286 300 299 290 280 254 253 251 247 251 254 255 257 258 249 257 252 253 253 253 255 252 254
323 322 320 319 311 303 289 285 287 292 293 292 295 293 286 287 285 294 299 295 287 287 270 300 278 282 272 263 263 261 253 250 245 247 244 243 248 253 254 260 262 264 263
318 318 318 316 312 305 303 302 296 301 295 293 295 296 297 291 301 296 293 289 280 281 275 273 299 307 299 268 261 259 257 250 248 247 248 254 258 260 261 262 262 263 265
317 311 312 311 312 313 304 301 297 295 294 293 293 298 305 306 302 300 296 289 287 285 284 274 275 293 307 308 294 305 303 301 294 298 287 280 274 270 270 268 267 267 267
315 306 305 303 306 309 299 293 291 292 290 290 290 294 300 303 303 301 296 299 295 295 296 301 296 301 299 306 294 283 281 278 274 271 270 272 270 269 268 269 268 267 268
310 311 308 303 303 302 292 288 285 285 285 284 290 292 296 297 295 294 293 289 287 286 287 289 283 287 282 282 280 280 274 272 274 273 270 266 265 266 266 266 266 267 268
308 317 321 305 300 302 302 297 288 288 287 288 289 294 297 298 295 291 287 287 283 280 280 285 287 283 275 273 274 273 270 271 269 270 272 273 272 272 271 271 267 266 269
312 315 313 315 316 310 306 302 298 293 290 290 292 294 297 299 300 299 296 291 287 285 282 280 279 280 281 278 280 276 271 273 276 276 274 275 274 271 271 272 272 271 269
310 313 315 310 313 310 305 304 301 299 295 294 292 291 293 294 293 294 294 291 288 282 281 281 280 279 278 279 281 281 280 278 276 277 277 279 279 277 276 274 273 273 273
308 308 310 311 310 309 307 303 301 300 300 300 298 294 293 295 297 297 297 295 293 294 293 290 290 290 289 286 282 283 284 283 282 281 281 279 277 275 274 274 273 272 273
308 308 307 314 315 312 309 305 302 300 299 299 297 295 295 295 295 295 295 297 298 299 300 301 298 294 292 290 287 285 286 288 289 287 282 283 283 284 283 278 275 274 273
307 309 311 315 314 311 308 305 302 301 301 300 298 297 296 296 297 299 300 301 301 302 302 301 300 300 299 298 296 295 292 289 287 288 289 290 288 285 283 280 278 275 273
Height
5896 5897 5899 5900 5901 5902 5900 5900 5900 5902 5903 5903 5904 5904 5905 5906 5906 5906 5906 5906 5906 5906 5905 5905 5904 5903 5902 5900 5900 5900 5899 5899 5899 5899 5898 5898 5898 5897 5897 5898 5898 5898 5898
5894 5896 5899 5899 5898 5898 5899 5899 5899 5900 5900 5901 5902 5903 5903 5904 5904 5905 5905 5904 5904 5904 5903 5903 5902 5902 5901 5899 5898 5898 5897 5897 5897 5898 5898 5897 5897 5896 5895 5895 5896 5896 5896
5893 5895 5896 5896 5897 5896 5897 5898 5898 5898 5899 5899 5900 5901 5901 5902 5902 5902 5902 5902 5901 5901 5901 5900 5900 5899 5899 5898 5897 5896 5896 5896 5896 5896 5896 5896 5896 5895 5893 5893 5892 5892 5893
5893 5894 5895 5896 5895 5896 5894 5893 5895 5896 5897 5896 5896 5896 5897 5898 5899 5900 5900 5899 5898 5897 5897 5896 5896 5896 5897 5897 5896 5896 5896 5896 5896 5895 5894 5894 5894 5893 5891 5890 5890 5890 5889
5893 5894 5894 5893 5894 5894 5895 5894 5895 5895 5895 5895 5893 5892 5893 5894 5894 5895 5895 5895 5894 5894 5893 5892 5892 5892 5892 5892 5893 5894 5894 5895 5894 5893 5892 5892 5891 5891 5890 5889 5887 5887 5887
5894 5893 5894 5892 5892 5893 5894 5893 5892 5892 5892 5893 5893 5893 5892 5892 5891 5890 5890 5890 5889 5888 5888 5888 5888 5888 5888 5887 5888 5889 5890 5890 5891 5891 5889 5889 5888 5887 5886 5886 5885 5884 5884
5896 5894 5895 5893 5893 5894 5894 5892 5891 5891 5891 5890 5889 5889 5889 5889 5888 5887 5886 5886 5885 5885 5884 5884 5883 5883 5883 5883 5883 5883 5884 5885 5886 5886 5885 5884 5884 5884 5882 5882 5882 5881 5881
5892 5890 5890 5891 5892 5892 5892 5892 5891 5891 5890 5889 5888 5888 5887 5886 5885 5883 5882 5881 5881 5880 5879 5879 5879 5879 5878 5876 5877 5878 5879 5879 5880 5879 5877 5877 5878 5878 5878 5877 5877 5876 5876
5889 5889 5887 5888 5889 5888 5887 5887 5887 5887 5888 5887 5887 5886 5884 5883 5881 5880 5880 5879 5877 5876 5876 5875 5874 5874 5871 5869 5870 5871 5870 5871 5873 5873 5871 5869 5869 5870 5870 5869 5869 5868 5867
5885 5884 5883 5883 5882 5883 5881 5884 5884 5883 5882 5880 5878 5878 5877 5876 5875 5875 5875 5875 5873 5872 5871 5870 5869 5868 5865 5861 5861 5863 5864 5864 5865 5866 5866 5864 5862 5861 5861 5861 5861 5859 5860
5882 5882 5881 5879 5877 5877 5879 5879 5879 5875 5875 5873 5872 5869 5869 5869 5866 5866 5866 5866 5864 5863 5861 5861 5861 5859 5857 5854 5852 5851 5853 5853 5854 5856 5856 5856 5855 5854 5852 5852 5852 5852 5851
5878 5877 5878 5877 5877 5875 5876 5874 5873 5871 5869 5868 5865 5864 5861 5859 5857 5858 5858 5855 5855 5854 5852 5849 5847 5846 5845 5844 5845 5845 5845 5844 5844 5846 5847 5848 5846 5846 5844 5844 5845 5844 5842
5873 5872 5873 5874 5872 5871 5869 5868 5867 5864 5861 5859 5857 5855 5852 5853 5852 5849 5847 5846 5843 5841 5840 5836 5830 5829 5829 5830 5832 5834 5833 5832 5834 5835 5837 5836 5836 5835 5835 5834 5833 5834 5835
5869 5868 5869 5868 5866 5866 5865 5862 5859 5856 5855 5851 5848 5845 5842 5842 5841 5840 5837 5837 5834 5833 5828 5823 5815 5812 5813 5817 5820 5823 5823 5822 5823 5824 5824 5823 5824 5825 5823 5822 5822 5821 5822
5865 5864 5862 5861 5860 5859 5856 5853 5852 5851 5847 5844 5840 5838 5834 5831 5830 5830 5831 5827 5826 5824 5818 5813 5809 5810 5810 5808 5809 5809 5810 5811 5813 5812 5812 5813 5810 5811 5811 5811 5811 5810 5810
5861 5860 5858 5857 5854 5852 5850 5849 5846 5843 5839 5837 5835 5833 5831 5829 5825 5821 5819 5819 5818 5816 5811 5809 5807 5804 5803 5803 5802 5800 5797 5797 5797 5797 5798 5799 5800 5800 5799 5799 5800 5799 5799
5861 5858 5855 5852 5849 5846 5842 5840 5838 5836 5834 5833 5829 5827 5825 5824 5821 5819 5816 5813 5811 5807 5805 5803 5801 5798 5797 5798 5795 5793 5792 5789 5788 5785 5786 5786 5787 5787 5787 5787 5788 5788 5788
5858 5855 5851 5847 5844 5841 5837 5834 5832 5831 5829 5826 5824 5822 5819 5817 5815 5813 5810 5805 5802 5800 5798 5794 5792 5792 5790 5788 5787 5785 5782 5782 5783 5783 5782 5781 5779 5778 5777 5778 5778 5780 5778
5855 5852 5850 5846 5840 5835 5832 5829 5826 5824 5823 5819 5817 5815 5812 5809 5806 5804 5801 5797 5795 5793 5791 5787 5784 5782 5780 5779 5777 5777 5777 5776 5773 5773 5771 5771 5770 5769 5768 5766 5765 5764 5763
5850 5846 5842 5838 5834 5829 5826 5822 5818 5816 5813 5810 5808 5806 5803 5801 5799 5797 5794 5792 5789 5787 5785 5781 5779 5775 5773 5772 5769 5768 5768 5767 5763 5761 5759 5757 5756 5757 5755 5753 5752 5748 5746
5845 5841 5835 5829 5825 5820 5816 5812 5809 5806 5803 5799 5796 5794 5792 5789 5787 5785 5783 5782 5781 5779 5776 5772 5769 5766 5764 5762 5760 5759 5756 5754 5750 5747 5745 5744 5742 5741 5738 5736 5732 5733 5732
5838 5833 5828 5822 5817 5812 5808 5803 5799 5796 5792 5789 5787 5785 5783 5779 5776 5774 5773 5772 5770 5767 5764 5761 5757 5754 5751 5748 5746 5744 5744 5741 5735 5733 5730 5727 5725 5723 5721 5719 5718 5716 5714
5829 5825 5819 5814 5808 5803 5798 5795 5791 5788 5784 5781 5778 5776 5774 5771 5768 5765 5763 5760 5758 5757 5754 5750 5748 5744 5742 5738 5732 5729 5725 5723 5721 5719 5716 5710 5708 5706 5704 5701 5699 5698 5697
5823 5818 5812 5806 5800 5795 5791 5787 5783 5779 5776 5772 5769 5767 5764 5762 5759 5755 5752 5749 5746 5743 5740 5737 5734 5730 5727 5724 5720 5714 5710 5707 5703 5702 5700 5696 5694 5690 5686 5683 5681 5681 5680
5814 5810 5804 5800 5793 5789 5784 5779 5775 5770 5766 5764 5761 5758 5755 5752 5750 5746 5744 5740 5736 5731 5727 5724 5721 5718 5715 5713 5709 5705 5699 5694 5689 5685 5682 5677 5675 5669 5669 5668 5665 5663 5662
5804 5798 5794 5790 5785 5780 5776 5772 5767 5763 5759 5755 5752 5749 5746 5743 5740 5737 5733 5730 5726 5722 5718 5714 5711 5707 5703 5700 5696 5691 5687 5683 5680 5676 5671 5665 5660 5655 5651 5649 5648 5647 5646